EW4706 Weather Reports


time (UTC)temp
C
wind
direction
speed
KPH
gust
KPH
rain 1hr
cm
rain 24hr
cm
rain mn
cm
humidity
%
barometer
mb
20260506091541 16 203 6.4 17.7 0.00 0.00 0.00 82 1011.1
20260506090037 16 199 8.0 17.7 0.00 0.00 0.00 81 1011.1
20260506084535 16 174 8.0 16.1 0.00 0.00 0.00 80 1011.2
20260506083036 16 159 8.0 19.3 0.00 0.00 0.00 79 1011.2
20260506081529 16 153 9.7 16.1 0.00 0.00 0.00 78 1011.4
20260506080128 16 213 9.7 19.3 0.00 0.00 0.00 76 1011.4
20260506073022 17 184 6.4 14.5 0.00 0.00 0.00 73 1011.5
20260506071522 17 193 6.4 22.5 0.00 0.00 0.00 72 1011.5
20260506061516 17 185 9.7 25.7 0.00 0.00 0.00 69 1012.0
20260506044604 18 216 6.4 17.7 0.00 0.00 0.00 66 1012.6
20260506043057 18 158 8.0 16.1 0.00 0.00 0.00 65 1012.4
20260506041557 18 150 9.7 20.9 0.00 0.00 0.00 64 1012.5
20260506040053 18 206 8.0 27.4 0.00 0.00 0.00 64 1012.5
20260506034552 18 185 9.7 22.5 0.00 0.00 0.00 64 1012.4
20260506033051 18 148 14.5 24.1 0.00 0.00 0.00 63 1012.4
20260506031559 19 168 9.7 19.3 0.00 0.00 0.00 62 1012.4
20260506030108 19 202 9.7 22.5 0.00 0.00 0.00 60 1012.4
20260506024548 20 146 11.3 22.5 0.00 0.00 0.00 57 1012.4
20260506023048 20 172 11.3 19.3 0.00 0.00 0.00 53 1012.3
20260506021549 20 159 11.3 27.4 0.00 0.00 0.00 52 1012.2
20260506020047 21 200 11.3 29.0 0.00 0.00 0.00 50 1012.2
20260506014548 21 169 11.3 20.9 0.00 0.00 0.00 50 1012.1
20260506013047 21 189 9.7 19.3 0.00 0.00 0.00 49 1011.9
20260506011553 21 170 8.0 22.5 0.00 0.00 0.00 48 1011.9
20260506010045 22 151 9.7 17.7 0.00 0.00 0.00 47 1011.6
20260506004620 22 210 8.0 20.9 0.00 0.00 0.00 44 1011.6
20260506003043 22 176 6.4 19.3 0.00 0.00 0.00 43 1011.5
20260506001543 22 167 6.4 14.5 0.00 0.00 0.00 41 1011.3
20260506000045 23 157 3.2 17.7 0.00 0.00 0.00 41 1011.2
20260505234606 23 146 8.0 24.1 0.00 0.00 0.00 40 1011.1
20260505233040 23 152 9.7 19.3 0.00 0.00 0.00 39 1011.2
20260505231540 23 197 4.8 14.5 0.00 0.00 0.00 38 1011.1
20260505230039 23 143 9.7 20.9 0.00 0.00 0.00 37 1010.9
20260505224538 23 212 6.4 17.7 0.00 0.00 0.00 37 1010.7
20260505223052 24 211 6.4 27.4 0.00 0.00 0.00 36 1010.6
20260505221548 24 166 9.7 27.4 0.00 0.00 0.00 35 1010.6
20260505220036 25 210 8.0 27.4 0.00 0.00 0.00 35 1010.6
20260505214542 25 212 6.4 22.5 0.00 0.00 0.00 34 1010.4
20260505213034 25 127 4.8 29.0 0.00 0.00 0.00 34 1010.4
20260505211534 25 196 9.7 24.1 0.00 0.00 0.00 33 1010.3
20260505210033 26 185 6.4 17.7 0.00 0.00 0.00 33 1009.9
20260505204531 26 218 4.8 22.5 0.00 0.00 0.00 32 1010.0
20260505203031 26 219 12.9 27.4 0.00 0.00 0.00 33 1010.0
20260505201531 26 218 16.1 32.2 0.00 0.00 0.00 32 1010.2
20260505200034 26 143 9.7 29.0 0.00 0.00 0.00 34 1010.2
20260505194528 26 152 16.1 37.0 0.00 0.00 0.00 35 1010.3
20260505193027 26 208 8.0 38.6 0.00 0.00 0.00 32 1010.4
20260505191526 26 188 11.3 30.6 0.00 0.00 0.00 35 1010.5
20260505190024 26 305 9.7 33.8 0.00 0.00 0.00 33 1010.8
20260505184527 26 176 8.0 24.1 0.00 0.00 0.00 33 1011.0
20260505183038 26 170 11.3 35.4 0.00 0.00 0.00 34 1011.0
20260505181517 26 139 16.1 33.8 0.00 0.00 0.00 38 1011.3
20260505180017 26 236 11.3 30.6 0.00 0.00 0.00 38 1011.6
20260505174517 26 169 12.9 37.0 0.00 0.00 0.00 40 1011.5
20260505173020 25 229 3.2 24.1 0.00 0.00 0.00 44 1011.5
20260505171510 25 255 6.4 25.7 0.00 0.00 0.00 41 1011.8
20260505170010 25 210 4.8 12.9 0.00 0.00 0.00 44 1012.0
20260505164506 25 300 3.2 17.7 0.00 0.00 0.00 43 1012.2
20260505163002 24 302 4.8 17.7 0.00 0.00 0.00 46 1012.5
20260505161501 24 229 6.4 12.9 0.00 0.00 0.00 45 1012.7
20260505160109 23 248 1.6 14.5 0.00 0.00 0.00 46 1012.8
20260505153058 23 157 4.8 14.5 0.00 0.00 0.00 46 1013.3
20260505151556 22 278 4.8 17.7 0.00 0.00 0.00 48 1013.3
20260505124530 17 214 4.8 11.3 0.00 0.00 0.00 62 1013.7
20260505123028 17 292 4.8 9.7 0.00 0.00 0.00 63 1013.4
20260505121526 17 165 4.8 9.7 0.00 0.00 0.00 64 1013.3
20260505120021 16 158 3.2 11.3 0.00 0.00 0.00 67 1013.4
20260505114517 15 219 4.8 14.5 0.00 0.00 0.00 69 1013.5
20260505113014 14 167 0.0 11.3 0.00 0.00 0.00 76 1013.6
20260505111514 13 165 4.8 9.7 0.00 0.00 0.00 78 1013.5
20260505101513 14 191 3.2 16.1 0.00 0.00 0.00 72 1013.7
20260505100007 14 255 1.6 9.7 0.00 0.00 0.00 67 1013.7
20260505094507 14 269 3.2 12.9 0.00 0.00 0.00 66 1013.5
20260505093001 14 127 0.0 8.0 0.00 0.00 0.00 66 1013.3